[[{"header":{"parameterUnit":"m.s-1","parameterCategory":2,"la1":30.2991,"la2":30.254,"lo1":-89.0895,"lo2":-89.0444,"dy":0.0017,"dx":0.0017,"nx":28,"ny":28,"refTime":"2024-10-21T03:00:00:Z","depth":"0","parameterNumber":2,"parameterNumberName":"U-component_of_CURRENTS"},"data":[0,0,0,0,0,0,0,0,0,0,0,0,0,0,0,0,0,0,0,0,0,0,0,0,0,0,0,0,0,0,0,0,0,0,0,0,0,0,0,0,0,0,0,0,0,0,0,0,0,0,0,0,0,0,0,0,0,0,-0.2678,-0.2678,0,-0.2688,-0.2688,-0.2688,-0.2654,-0.2653,-0.2652,-0.2651,-0.2609,-0.2608,-0.2608,0,0,0,0,0,0,0,0,0,0,0,0,0,-0.2648,-0.2649,-0.2678,-0.2678,-0.2679,-0.2688,-0.2688,-0.2688,-0.2654,-0.2653,-0.2652,-0.2651,-0.2609,-0.2609,-0.2608,0,0,0,0,0,0,0,0,0,0,0,0,0,-0.2658,-0.2649,-0.2678,-0.2664,-0.2663,-0.2688,-0.2688,-0.2688,-0.2654,-0.2653,-0.2651,-0.265,-0.2609,-0.2609,-0.2608,-0.263,0,0,-0.2606,-0.2606,0,0,0,0,0,0,0,0,-0.2657,-0.2659,-0.2666,-0.2665,-0.2664,-0.267,-0.2662,-0.2666,-0.2654,-0.2655,-0.2651,-0.265,-0.2627,-0.2625,-0.2627,-0.2628,-0.2626,-0.2606,-0.2606,-0.2606,-0.2606,0,0,0,0,0,0,0,-0.2657,-0.2658,-0.268,-0.2666,-0.2665,-0.2664,-0.2664,-0.2663,-0.2645,-0.2655,-0.2653,-0.2658,-0.2625,-0.2628,-0.2626,-0.2626,-0.2606,-0.2606,-0.2606,-0.2605,-0.2628,-0.2629,0,0,0,0,0,0,-0.266,-0.2658,-0.2679,-0.268,-0.266,-0.2666,-0.2665,-0.2668,-0.2646,-0.2643,-0.2659,-0.2656,-0.2629,-0.2626,-0.2624,-0.2638,-0.2606,-0.2605,-0.2605,-0.2627,-0.2628,-0.2629,0,0,0,0,0,0,-0.2659,-0.2662,-0.2679,-0.2671,-0.2673,-0.2668,-0.2671,-0.2669,-0.2666,-0.265,-0.2645,-0.2658,-0.2628,-0.2625,-0.2624,-0.2636,-0.2605,-0.2605,-0.2626,-0.2627,-0.2629,-0.2673,0,0,0,0,0,0,-0.2659,-0.2662,-0.266,-0.2671,-0.2674,-0.2696,-0.2672,-0.267,-0.2672,-0.2668,-0.2648,-0.2643,-0.2627,-0.2625,-0.2624,-0.2635,-0.2604,-0.2625,-0.2627,-0.2628,-0.267,-0.2676,-0.268,0,0,0,0,0,-0.2657,-0.2662,-0.266,-0.2662,-0.2673,-0.2697,-0.2698,-0.2688,-0.2673,-0.2679,-0.2664,-0.2643,-0.2635,-0.2626,-0.2624,-0.2635,-0.2624,-0.2626,-0.2628,-0.2668,-0.2675,-0.268,0,0,0,0,0,0,-0.2641,-0.266,-0.2657,-0.2664,-0.2681,-0.2692,-0.2693,-0.2692,-0.2687,-0.2678,-0.2657,-0.2652,-0.2656,-0.2644,-0.2634,-0.2648,-0.2626,-0.2627,-0.2657,-0.2663,-0.2668,-0.2665,-0.2604,0,0,0,0,0,-0.2641,-0.2647,-0.2669,-0.2672,-0.2683,-0.2689,-0.2695,-0.2695,-0.2696,-0.2692,-0.268,-0.2668,-0.2667,-0.2661,-0.2658,-0.2667,-0.2639,-0.2673,-0.2678,-0.2682,-0.268,-0.2655,-0.2657,-0.2636,-0.2636,-0.2636,0,0,-0.263,-0.2643,-0.2644,-0.2669,-0.2676,-0.2701,-0.2688,-0.2703,-0.2717,-0.2689,-0.2694,-0.2686,-0.2674,-0.2683,-0.2683,-0.2671,-0.2674,-0.2685,-0.2688,-0.2683,-0.2657,-0.2659,-0.2661,-0.2637,-0.2637,-0.2637,0,0,-0.2626,-0.2631,-0.2641,-0.2664,-0.2689,-0.2702,-0.2709,-0.2727,-0.2728,-0.2743,-0.2724,-0.2723,-0.2721,-0.2715,-0.2712,-0.2744,-0.2702,-0.2743,-0.2763,-0.274,-0.2741,-0.2742,-0.2706,-0.2703,-0.2743,-0.2744,-0.2744,0,-0.2613,-0.263,-0.2648,-0.2674,-0.269,-0.2705,-0.2728,-0.2742,-0.2755,-0.2758,-0.2747,-0.2743,-0.2737,-0.2743,-0.2757,-0.2754,-0.2727,-0.2741,-0.2745,-0.2745,-0.2745,-0.2708,-0.2704,-0.2746,-0.2746,-0.2745,-0.2745,0,-0.2622,-0.2642,-0.2652,-0.2689,-0.2712,-0.2733,-0.2766,-0.2782,-0.2784,-0.2793,-0.2798,-0.279,-0.2783,-0.2788,-0.2784,-0.2786,-0.2762,-0.2755,-0.2727,-0.275,-0.2709,-0.2705,-0.2749,-0.2749,-0.2748,-0.2747,0,0,-0.2571,-0.2645,-0.2645,-0.2669,-0.2722,-0.274,-0.2777,-0.2808,-0.2819,-0.2829,-0.2835,-0.2843,-0.283,-0.2826,-0.2817,-0.2804,-0.2788,-0.2783,-0.2781,-0.2743,-0.2722,-0.2627,-0.2612,-0.2777,-0.2777,-0.2776,-0.2692,0,-0.2567,-0.2617,-0.2656,-0.2696,-0.2724,-0.2764,-0.2795,-0.2827,-0.2842,-0.2855,-0.2852,-0.2853,-0.2847,-0.284,-0.283,-0.2802,-0.2777,-0.281,-0.271,-0.2707,-0.2616,-0.2605,-0.2497,-0.2406,-0.2687,-0.2687,-0.2686,0,-0.2552,-0.2593,-0.2636,-0.2705,-0.2719,-0.2746,-0.2788,-0.2821,-0.2855,-0.2866,-0.2869,-0.2866,-0.2861,-0.2848,-0.2796,-0.2816,-0.2772,-0.2743,-0.2739,-0.263,-0.2603,-0.2431,-0.2386,-0.2371,-0.2678,-0.2679,-0.2679,0,-0.2495,-0.257,-0.2602,-0.2627,-0.2711,-0.2729,-0.2765,-0.281,-0.2828,-0.2864,-0.2862,-0.2867,-0.2845,-0.2813,-0.2759,-0.2777,-0.2684,-0.2698,-0.2566,-0.2559,-0.2435,-0.2417,-0.2357,-0.2645,-0.2646,-0.2646,-0.2646,0,-0.2468,-0.2488,-0.2577,-0.2595,-0.2621,-0.2694,-0.2715,-0.2756,-0.2801,-0.2804,-0.285,-0.2832,-0.2832,-0.2784,-0.275,-0.2628,-0.2669,-0.2556,-0.2526,-0.2447,-0.2432,-0.2387,-0.2415,-0.2643,-0.2643,-0.2644,-0.2645,0,-0.2386,-0.2453,-0.2488,-0.2573,-0.2593,-0.2605,-0.2672,-0.2684,-0.2744,-0.2747,-0.2754,-0.2787,-0.2724,-0.2697,-0.2631,-0.2582,-0.2448,-0.2447,-0.2347,-0.2307,-0.2173,-0.2208,-0.2101,-0.2044,-0.2293,-0.229,-0.2288,0,-0.2345,-0.2358,-0.2439,-0.2448,-0.2479,-0.2517,-0.2535,-0.2629,-0.2644,-0.2699,-0.2682,-0.2654,-0.2584,-0.2461,-0.2388,-0.2284,-0.2306,-0.2135,-0.2152,-0.2133,-0.2152,-0.2185,-0.2148,-0.2009,-0.2005,-0.2001,-0.1998,0,-0.2246,-0.2276,-0.2302,-0.2331,-0.2352,-0.2382,-0.2421,-0.2435,-0.253,-0.2529,-0.2504,-0.2457,-0.2353,-0.2202,-0.2093,-0.2032,-0.2082,-0.2054,-0.2061,-0.1937,-0.1942,-0.1882,-0.2105,-0.1965,-0.1968,-0.1971,-0.1972,-0.1974,-0.2141,-0.2133,-0.2169,-0.2182,-0.221,-0.2221,-0.2201,-0.2254,-0.2255,-0.2234,-0.2286,-0.2174,-0.2081,-0.1903,-0.1838,-0.1724,-0.1807,-0.1691,-0.1737,-0.1775,-0.1707,-0.1846,-0.1661,-0.1662,-0.1663,-0.1665,-0.1666,0,-0.1996,-0.2008,-0.2015,-0.2033,-0.2014,-0.2082,-0.2094,-0.2047,-0.1997,-0.1988,-0.1933,-0.1831,-0.1684,-0.1634,-0.1525,-0.1447,-0.1434,-0.1431,-0.1474,-0.1453,-0.158,-0.1555,-0.1305,-0.1305,-0.1305,-0.1305,-0.1305,-0.1305,-0.1919,-0.1876,-0.1891,-0.1824,-0.184,-0.1787,-0.1767,-0.1694,-0.1646,-0.1508,-0.1457,-0.1414,-0.1426,-0.1516,-0.141,-0.1339,-0.1334,-0.1275,-0.1326,-0.1452,-0.1481,-0.1509,-0.1492,-0.1233,-0.1233,-0.1139,-0.1138,-0.1138]},{"header":{"parameterUnit":"m.s-1","parameterCategory":2,"la1":30.2991,"la2":30.254,"lo1":-89.0895,"lo2":-89.0444,"dy":0.0017,"dx":0.0017,"nx":28,"ny":28,"refTime":"2024-10-21T03:00:00:Z","depth":"0","parameterNumber":3,"parameterNumberName":"V-component_of_CURRENTS"},"data":[0,0,0,0,0,0,0,0,0,0,0,0,0,0,0,0,0,0,0,0,0,0,0,0,0,0,0,0,0,0,0,0,0,0,0,0,0,0,0,0,0,0,0,0,0,0,0,0,0,0,0,0,0,0,0,0,0,0,-0.0381,-0.038,0,-0.0285,-0.0283,-0.0282,-0.0221,-0.022,-0.022,-0.022,-0.0096,-0.0093,-0.009,0,0,0,0,0,0,0,0,0,0,0,0,0,-0.0474,-0.0473,-0.0381,-0.038,-0.0378,-0.0285,-0.0283,-0.0282,-0.0221,-0.022,-0.022,-0.0219,-0.0097,-0.0093,-0.009,0,0,0,0,0,0,0,0,0,0,0,0,0,-0.0411,-0.0472,-0.0381,-0.0337,-0.0332,-0.0285,-0.0283,-0.0282,-0.0221,-0.022,-0.022,-0.0219,-0.0098,-0.0093,-0.0089,-0.0072,0,0,-0.0075,-0.0073,0,0,0,0,0,0,0,0,-0.0415,-0.0408,-0.0344,-0.034,-0.0334,-0.0264,-0.0271,-0.021,-0.0221,-0.0263,-0.022,-0.0219,-0.015,-0.0141,-0.0124,-0.0066,-0.0061,-0.0075,-0.0072,-0.007,-0.0069,0,0,0,0,0,0,0,-0.0419,-0.0411,-0.0342,-0.0343,-0.0337,-0.0309,-0.03,-0.0259,-0.021,-0.0259,-0.0254,-0.0244,-0.0147,-0.0129,-0.0121,-0.0059,-0.0075,-0.0071,-0.0068,-0.0067,0.0031,0.0031,0,0,0,0,0,0,-0.0434,-0.0416,-0.0345,-0.034,-0.0374,-0.0308,-0.0297,-0.0287,-0.0211,-0.0199,-0.0245,-0.0242,-0.0137,-0.0126,-0.0116,-0.0092,-0.007,-0.0066,-0.0064,0.0031,0.0031,0.0031,0,0,0,0,0,0,-0.0436,-0.0429,-0.0349,-0.0376,-0.0363,-0.0307,-0.0296,-0.0285,-0.0267,-0.02,-0.0188,-0.0237,-0.0136,-0.0123,-0.0082,-0.0087,-0.0064,-0.006,0.0032,0.0031,0.0031,-0.0043,0,0,0,0,0,0,-0.0439,-0.043,-0.043,-0.0377,-0.0363,-0.033,-0.0296,-0.0284,-0.0262,-0.0257,-0.0189,-0.0177,-0.0134,-0.0089,-0.0078,-0.008,-0.0057,0.0032,0.0032,0.0031,-0.004,-0.0046,-0.005,0,0,0,0,0,-0.0443,-0.0446,-0.043,-0.0422,-0.0363,-0.033,-0.0321,-0.0278,-0.0262,-0.0259,-0.0212,-0.0179,-0.0082,-0.0086,-0.0072,-0.0073,0.0032,0.0032,0.0031,-0.0038,-0.0045,-0.005,0,0,0,0,0,0,-0.0483,-0.0438,-0.042,-0.0408,-0.0376,-0.032,-0.0313,-0.0285,-0.0246,-0.0241,-0.0179,-0.0164,-0.0131,-0.0092,-0.0098,-0.0045,-0.002,-0.0018,-0.0078,-0.0083,-0.0088,-0.0106,-0.0053,0,0,0,0,0,-0.0494,-0.0487,-0.0438,-0.0431,-0.0418,-0.0368,-0.035,-0.0323,-0.028,-0.0262,-0.0214,-0.0164,-0.0121,-0.0095,-0.0053,-0.0024,0.0022,-0.0015,-0.002,-0.0025,-0.003,0.0033,0.0034,0.0031,0.0031,0.0031,0,0,-0.0507,-0.0482,-0.0477,-0.0439,-0.0411,-0.0402,-0.0356,-0.0336,-0.0325,-0.0255,-0.0229,-0.0181,-0.0118,-0.0086,-0.0067,-0.0053,0.0001,-0.0025,-0.0029,-0.0032,0.0033,0.0034,0.0034,0.0031,0.0031,0.0031,0,0,-0.0539,-0.051,-0.0519,-0.0498,-0.0464,-0.043,-0.0429,-0.0378,-0.0353,-0.0322,-0.0269,-0.0225,-0.0162,-0.0115,-0.0084,-0.0089,-0.003,-0.0076,-0.0111,-0.005,-0.0049,-0.0048,0.0009,0.0016,-0.0076,-0.0076,-0.0076,0,-0.0559,-0.056,-0.0517,-0.0522,-0.051,-0.045,-0.0458,-0.0423,-0.0366,-0.0343,-0.0325,-0.0224,-0.0175,-0.0124,-0.0128,-0.01,-0.0057,-0.0097,-0.0057,-0.0055,-0.0052,0.0006,0.0015,-0.0079,-0.0079,-0.0079,-0.0078,0,-0.0598,-0.06,-0.0604,-0.059,-0.0571,-0.0567,-0.0516,-0.0492,-0.0453,-0.0411,-0.0356,-0.0285,-0.0221,-0.0201,-0.0167,-0.0126,-0.0099,-0.0074,-0.0047,-0.0057,0.0006,0.0016,-0.0085,-0.0083,-0.0082,-0.0081,0,0,-0.064,-0.0635,-0.0636,-0.0644,-0.0607,-0.0595,-0.0576,-0.0534,-0.0513,-0.0454,-0.0418,-0.0348,-0.03,-0.0261,-0.0205,-0.0157,-0.0105,-0.0118,-0.0113,-0.0069,0.003,0.0074,0.009,-0.0074,-0.0073,-0.0072,0.0066,0,-0.0685,-0.0723,-0.0696,-0.0718,-0.0732,-0.0671,-0.0657,-0.0609,-0.0552,-0.05,-0.0417,-0.0364,-0.0323,-0.0291,-0.0236,-0.013,-0.0081,-0.0145,0.004,0.0045,0.008,0.0102,0.015,0.0279,0.0077,0.0078,0.008,0,-0.0731,-0.0752,-0.0793,-0.0787,-0.0784,-0.0781,-0.0734,-0.071,-0.062,-0.0573,-0.0498,-0.0424,-0.0335,-0.0306,-0.0138,-0.018,-0.009,-0.0014,-0.0006,0.0068,0.0109,0.0259,0.0306,0.0438,0.0096,0.0095,0.0094,0,-0.0794,-0.0811,-0.085,-0.085,-0.0834,-0.0831,-0.081,-0.0738,-0.0707,-0.0614,-0.0575,-0.0455,-0.0381,-0.0262,-0.01,-0.0117,0.0087,0.0093,0.0217,0.0221,0.0314,0.0325,0.0506,0.0198,0.0198,0.0198,0.0197,0,-0.0855,-0.0879,-0.0885,-0.0907,-0.0935,-0.0895,-0.0891,-0.0846,-0.077,-0.0722,-0.0619,-0.0545,-0.0368,-0.0225,-0.01,0.0104,0.0098,0.0218,0.0264,0.029,0.0296,0.0458,0.0496,0.0203,0.0202,0.0201,0.02,0,-0.0918,-0.0924,-0.0965,-0.097,-0.0971,-0.0989,-0.0955,-0.0939,-0.0864,-0.0794,-0.0767,-0.0593,-0.0397,-0.0216,0.001,0.012,0.0389,0.036,0.0377,0.0422,0.064,0.0671,0.0886,0.0972,0.0517,0.0519,0.0521,0,-0.0956,-0.0989,-0.1022,-0.1048,-0.1054,-0.1066,-0.1068,-0.1,-0.0966,-0.0812,-0.0777,-0.0576,-0.0404,-0.0058,0.0171,0.0416,0.05,0.0584,0.0555,0.0671,0.074,0.0753,0.0811,0.0656,0.0658,0.066,0.0662,0,-0.102,-0.1031,-0.1065,-0.1128,-0.1148,-0.1159,-0.1146,-0.1129,-0.102,-0.0925,-0.0748,-0.0596,-0.0256,0.0067,0.0369,0.0511,0.0689,0.0634,0.0766,0.0872,0.0891,0.099,0.0538,0.0681,0.0679,0.0678,0.0677,0.0676,-0.1053,-0.1096,-0.1142,-0.1193,-0.1221,-0.1227,-0.1199,-0.1132,-0.1038,-0.0802,-0.0717,-0.0381,-0.0018,0.0431,0.0583,0.0915,0.0861,0.1012,0.1044,0.105,0.1124,0.0705,0.0886,0.0885,0.0885,0.0884,0.0884,0,-0.1087,-0.1135,-0.1198,-0.1249,-0.128,-0.1276,-0.1223,-0.112,-0.0955,-0.0686,-0.0463,0.0033,0.0406,0.0746,0.1143,0.1317,0.1346,0.1403,0.1443,0.1485,0.1144,0.1139,0.137,0.137,0.137,0.137,0.137,0.137,-0.1105,-0.1173,-0.121,-0.1277,-0.1305,-0.125,-0.1194,-0.0989,-0.0752,-0.0286,0.0101,0.0353,0.0744,0.1286,0.1649,0.1684,0.1829,0.1816,0.1887,0.1652,0.1617,0.1585,0.1593,0.1915,0.1915,0.2232,0.2235,0.2238]}],[{"header":{"parameterUnit":"m.s-1","parameterCategory":2,"la1":30.2991,"la2":30.254,"lo1":-89.0895,"lo2":-89.0444,"dy":0.0017,"dx":0.0017,"nx":28,"ny":28,"refTime":"2024-10-21T03:00:00:Z","depth":"2","parameterNumber":2,"parameterNumberName":"U-component_of_CURRENTS"},"data":[0,0,0,0,0,0,0,0,0,0,0,0,0,0,0,0,0,0,0,0,0,0,0,0,0,0,0,0,0,0,0,0,0,0,0,0,0,0,0,0,0,0,0,0,0,0,0,0,0,0,0,0,0,0,0,0,0,0,-0.2377,-0.2377,0,-0.2393,-0.2393,-0.2393,-0.2374,-0.2374,-0.2373,-0.2373,-0.2352,-0.2352,-0.2352,0,0,0,0,0,0,0,0,0,0,0,0,0,-0.2345,-0.2346,-0.2377,-0.2377,-0.2378,-0.2393,-0.2393,-0.2393,-0.2374,-0.2374,-0.2373,-0.2372,-0.2352,-0.2352,-0.2352,0,0,0,0,0,0,0,0,0,0,0,0,0,-0.2358,-0.2346,-0.2377,-0.2371,-0.2371,-0.2393,-0.2393,-0.2393,-0.2374,-0.2374,-0.2373,-0.2372,-0.2352,-0.2352,-0.2352,-0.2368,0,0,-0.2352,-0.2352,0,0,0,0,0,0,0,0,-0.2358,-0.2359,-0.2372,-0.2372,-0.2371,-0.2382,-0.2375,-0.2384,-0.2375,-0.2371,-0.2373,-0.2372,-0.236,-0.2359,-0.2363,-0.2367,-0.2366,-0.2352,-0.2352,-0.2352,-0.2352,0,0,0,0,0,0,0,-0.2357,-0.2359,-0.2382,-0.2372,-0.2372,-0.2373,-0.2374,-0.2376,-0.2368,-0.2372,-0.2371,-0.2375,-0.236,-0.2363,-0.2362,-0.2366,-0.2352,-0.2352,-0.2351,-0.2351,-0.2383,-0.2384,0,0,0,0,0,0,-0.2358,-0.2358,-0.2381,-0.2382,-0.2364,-0.2375,-0.2375,-0.2378,-0.2369,-0.2368,-0.2376,-0.2374,-0.2363,-0.2362,-0.2361,-0.2382,-0.2352,-0.2351,-0.2351,-0.2382,-0.2384,-0.2384,0,0,0,0,0,0,-0.2358,-0.236,-0.2381,-0.2372,-0.2375,-0.2376,-0.238,-0.2379,-0.2382,-0.2373,-0.2371,-0.238,-0.2362,-0.2361,-0.2368,-0.2381,-0.2351,-0.2351,-0.2381,-0.2383,-0.2384,-0.2423,0,0,0,0,0,0,-0.2357,-0.236,-0.236,-0.2372,-0.2375,-0.2398,-0.2381,-0.238,-0.2387,-0.2385,-0.2376,-0.2373,-0.2362,-0.2368,-0.2368,-0.2381,-0.2351,-0.238,-0.2382,-0.2384,-0.2421,-0.2426,-0.243,0,0,0,0,0,-0.2355,-0.236,-0.236,-0.2363,-0.2377,-0.2399,-0.2401,-0.2398,-0.2388,-0.2396,-0.2389,-0.2373,-0.2378,-0.2369,-0.2368,-0.2381,-0.238,-0.2382,-0.2383,-0.2419,-0.2425,-0.243,0,0,0,0,0,0,-0.2342,-0.2359,-0.2359,-0.2367,-0.2384,-0.2396,-0.24,-0.2403,-0.2404,-0.2399,-0.2386,-0.2383,-0.2394,-0.2385,-0.2375,-0.2396,-0.2376,-0.2378,-0.2403,-0.2409,-0.2413,-0.2409,-0.2351,0,0,0,0,0,-0.2342,-0.2348,-0.237,-0.2374,-0.2384,-0.2394,-0.2401,-0.2405,-0.241,-0.241,-0.2405,-0.2401,-0.2404,-0.2403,-0.2403,-0.2417,-0.2392,-0.2424,-0.2429,-0.2433,-0.243,-0.2411,-0.2413,-0.2391,-0.2391,-0.2391,0,0,-0.2334,-0.2346,-0.2348,-0.2371,-0.2381,-0.2403,-0.2395,-0.2412,-0.2427,-0.2408,-0.2421,-0.2418,-0.2411,-0.2425,-0.2428,-0.2417,-0.2427,-0.2435,-0.2439,-0.2433,-0.2413,-0.2415,-0.2417,-0.2392,-0.2392,-0.2392,0,0,-0.2331,-0.2339,-0.2348,-0.2369,-0.2394,-0.2407,-0.2415,-0.2435,-0.244,-0.246,-0.2448,-0.2452,-0.2458,-0.2456,-0.2455,-0.2486,-0.2452,-0.2488,-0.2507,-0.249,-0.2491,-0.2492,-0.2461,-0.2459,-0.249,-0.249,-0.249,0,-0.2323,-0.2338,-0.2354,-0.2377,-0.2393,-0.2411,-0.2432,-0.2448,-0.2467,-0.2473,-0.2467,-0.2475,-0.2473,-0.2482,-0.2496,-0.2496,-0.2474,-0.2486,-0.2494,-0.2495,-0.2495,-0.2463,-0.246,-0.2492,-0.2492,-0.2492,-0.2491,0,-0.2331,-0.235,-0.2359,-0.2393,-0.2415,-0.2436,-0.2467,-0.2486,-0.2495,-0.2506,-0.2519,-0.2517,-0.2517,-0.2524,-0.2521,-0.2527,-0.2507,-0.2502,-0.2478,-0.2499,-0.2465,-0.2461,-0.2495,-0.2494,-0.2494,-0.2493,0,0,-0.2289,-0.2353,-0.2354,-0.2376,-0.2425,-0.2443,-0.2479,-0.2511,-0.2526,-0.2542,-0.2553,-0.2566,-0.2559,-0.2558,-0.2553,-0.2544,-0.2533,-0.2528,-0.2526,-0.2492,-0.2482,-0.239,-0.2377,-0.2527,-0.2527,-0.2527,-0.2456,0,-0.2287,-0.233,-0.2364,-0.2402,-0.2427,-0.2466,-0.2496,-0.2529,-0.255,-0.2568,-0.257,-0.2579,-0.2574,-0.2574,-0.2567,-0.2546,-0.2525,-0.2552,-0.247,-0.2467,-0.2379,-0.2371,-0.2205,-0.212,-0.2452,-0.2451,-0.2451,0,-0.2274,-0.2308,-0.2348,-0.2409,-0.2423,-0.2449,-0.2494,-0.2527,-0.2566,-0.2581,-0.2592,-0.2594,-0.2595,-0.2583,-0.2544,-0.256,-0.2523,-0.2499,-0.2496,-0.2392,-0.2368,-0.2154,-0.2101,-0.2444,-0.2444,-0.2445,-0.2445,0,-0.2223,-0.229,-0.2319,-0.2341,-0.2417,-0.2437,-0.2473,-0.2521,-0.2542,-0.2584,-0.2589,-0.2599,-0.2585,-0.256,-0.2516,-0.2531,-0.2455,-0.2468,-0.2343,-0.2336,-0.2168,-0.2146,-0.2422,-0.2423,-0.2423,-0.2423,-0.2423,0,-0.2199,-0.2218,-0.2298,-0.2313,-0.2339,-0.2407,-0.2433,-0.2474,-0.2523,-0.253,-0.2581,-0.2568,-0.2577,-0.2539,-0.251,-0.2401,-0.2443,-0.2333,-0.2308,-0.2177,-0.2158,-0.242,-0.2421,-0.242,-0.2421,-0.2421,-0.2422,0,-0.2127,-0.2186,-0.2218,-0.2295,-0.2315,-0.2329,-0.2396,-0.2411,-0.2475,-0.2484,-0.2494,-0.2532,-0.248,-0.2463,-0.2409,-0.2363,-0.2294,-0.2241,-0.2081,-0.2037,-0.2193,-0.2197,-0.2105,-0.2101,-0.2097,-0.2095,-0.2092,0,-0.209,-0.2101,-0.2175,-0.2183,-0.2213,-0.2252,-0.227,-0.2363,-0.238,-0.244,-0.2425,-0.241,-0.2344,-0.2242,-0.2172,-0.2079,-0.2171,-0.1884,-0.1885,-0.2173,-0.2158,-0.2168,-0.2176,-0.1678,-0.1673,-0.1668,-0.1665,0,-0.2003,-0.2031,-0.2053,-0.2077,-0.2099,-0.2127,-0.2166,-0.2176,-0.2269,-0.2271,-0.2249,-0.2206,-0.2119,-0.1945,-0.185,-0.1789,-0.1895,-0.1788,-0.211,-0.179,-0.1766,-0.1754,-0.1777,-0.1624,-0.1628,-0.1631,-0.1634,-0.1635,-0.1913,-0.1903,-0.1933,-0.1941,-0.1969,-0.1973,-0.1932,-0.1985,-0.198,-0.1941,-0.2017,-0.1881,-0.1862,-0.1606,-0.1521,-0.1468,-0.1604,-0.1547,-0.1563,-0.1583,-0.1552,-0.1524,-0.133,-0.1332,-0.1334,-0.1336,-0.1337,0,-0.1785,-0.179,-0.1791,-0.1796,-0.1763,-0.1829,-0.1827,-0.1749,-0.1674,-0.1682,-0.1624,-0.1425,-0.1301,-0.1288,-0.1133,-0.1112,-0.1125,-0.1076,-0.1097,-0.1137,-0.1172,-0.1123,-0.0785,-0.0784,-0.0782,-0.0781,0,0,-0.1718,-0.1671,-0.1675,-0.158,-0.1575,-0.1452,-0.1408,-0.1326,-0.128,-0.1173,-0.1106,-0.1183,-0.1209,-0.0985,-0.095,-0.0833,-0.0973,-0.0789,-0.1228,-0.1288,-0.1321,-0.1435,-0.1402,0,0,0,0,0]},{"header":{"parameterUnit":"m.s-1","parameterCategory":2,"la1":30.2991,"la2":30.254,"lo1":-89.0895,"lo2":-89.0444,"dy":0.0017,"dx":0.0017,"nx":28,"ny":28,"refTime":"2024-10-21T03:00:00:Z","depth":"2","parameterNumber":3,"parameterNumberName":"V-component_of_CURRENTS"},"data":[0,0,0,0,0,0,0,0,0,0,0,0,0,0,0,0,0,0,0,0,0,0,0,0,0,0,0,0,0,0,0,0,0,0,0,0,0,0,0,0,0,0,0,0,0,0,0,0,0,0,0,0,0,0,0,0,0,0,-0.0268,-0.0267,0,-0.0184,-0.0184,-0.0183,-0.0129,-0.0129,-0.0128,-0.0128,-0.002,-0.0018,-0.0015,0,0,0,0,0,0,0,0,0,0,0,0,0,-0.0345,-0.0344,-0.0268,-0.0267,-0.0266,-0.0185,-0.0183,-0.0182,-0.0129,-0.0129,-0.0128,-0.0128,-0.0021,-0.0018,-0.0015,0,0,0,0,0,0,0,0,0,0,0,0,0,-0.0291,-0.0343,-0.0268,-0.023,-0.0225,-0.0185,-0.0183,-0.0182,-0.0129,-0.0129,-0.0128,-0.0128,-0.0022,-0.0018,-0.0014,0.0,0,0,-0.0003,-0.0001,0,0,0,0,0,0,0,0,-0.0294,-0.0288,-0.0236,-0.0232,-0.0227,-0.0167,-0.0171,-0.012,-0.0129,-0.0165,-0.0128,-0.0127,-0.0067,-0.006,-0.0045,0.0005,0.001,-0.0002,0.0,0.0002,0.0003,0,0,0,0,0,0,0,-0.0298,-0.0291,-0.0235,-0.0235,-0.023,-0.0204,-0.0196,-0.0161,-0.0119,-0.0162,-0.0158,-0.0149,-0.0065,-0.0049,-0.0042,0.0012,-0.0002,0.0001,0.0004,0.0005,0.0092,0.0092,0,0,0,0,0,0,-0.0311,-0.0295,-0.0237,-0.0232,-0.0261,-0.0203,-0.0195,-0.0187,-0.012,-0.011,-0.015,-0.0147,-0.0056,-0.0047,-0.0038,-0.0013,0.0002,0.0005,0.0008,0.0092,0.0092,0.0092,0,0,0,0,0,0,-0.0313,-0.0307,-0.0241,-0.0262,-0.0252,-0.0203,-0.0194,-0.0185,-0.0169,-0.0111,-0.01,-0.0144,-0.0055,-0.0044,-0.0008,-0.0009,0.0007,0.0011,0.0092,0.0092,0.0092,0.0035,0,0,0,0,0,0,-0.0316,-0.0308,-0.0309,-0.0263,-0.0251,-0.0223,-0.0194,-0.0184,-0.0165,-0.0161,-0.0102,-0.0091,-0.0054,-0.0014,-0.0004,-0.0003,0.0014,0.0092,0.0092,0.0092,0.0037,0.0033,0.003,0,0,0,0,0,-0.0319,-0.0322,-0.0309,-0.0302,-0.0253,-0.0224,-0.0216,-0.0179,-0.0165,-0.0163,-0.0121,-0.0093,-0.0007,-0.0011,0.0,0.0003,0.0092,0.0092,0.0092,0.0039,0.0034,0.003,0,0,0,0,0,0,-0.0353,-0.0316,-0.0301,-0.0292,-0.0264,-0.0215,-0.0209,-0.0185,-0.0151,-0.0147,-0.0093,-0.0079,-0.0049,-0.0016,-0.0022,0.0028,0.0047,0.0049,0.0002,-0.0002,-0.0005,-0.0021,0.0017,0,0,0,0,0,-0.0363,-0.0358,-0.0316,-0.0311,-0.03,-0.0257,-0.0241,-0.0218,-0.018,-0.0164,-0.0123,-0.0079,-0.004,-0.0017,0.002,0.0047,0.0086,0.0057,0.0053,0.005,0.0046,0.0105,0.0106,0.0092,0.0092,0.0092,0,0,-0.0375,-0.0355,-0.0351,-0.0319,-0.0294,-0.0284,-0.0246,-0.0229,-0.0217,-0.0158,-0.0133,-0.0092,-0.0037,-0.0006,0.0011,0.0022,0.0074,0.005,0.0047,0.0044,0.0105,0.0106,0.0107,0.0092,0.0092,0.0092,0,0,-0.0402,-0.038,-0.0387,-0.0368,-0.0338,-0.0309,-0.0308,-0.0264,-0.0241,-0.0213,-0.0167,-0.0126,-0.0071,-0.0027,0.0001,0.0001,0.005,0.001,-0.0015,0.0042,0.0043,0.0045,0.0094,0.01,0.0012,0.0012,0.0012,0,-0.042,-0.0421,-0.0385,-0.0388,-0.0377,-0.0325,-0.0331,-0.0299,-0.0249,-0.0228,-0.0214,-0.0123,-0.0079,-0.0029,-0.0031,-0.0007,0.0028,-0.0005,0.0037,0.0039,0.0042,0.0092,0.01,0.0009,0.001,0.001,0.001,0,-0.0451,-0.0453,-0.0456,-0.0442,-0.0425,-0.0421,-0.0375,-0.0353,-0.032,-0.0282,-0.0232,-0.0168,-0.0111,-0.0092,-0.0062,-0.0019,0.0,0.0021,0.0045,0.004,0.0093,0.0102,0.0005,0.0006,0.0007,0.0008,0,0,-0.0488,-0.0481,-0.0483,-0.0489,-0.0455,-0.0445,-0.0424,-0.0386,-0.0367,-0.0313,-0.028,-0.0212,-0.0171,-0.0136,-0.0086,-0.0039,0.0011,-0.0008,-0.0004,0.0034,0.0132,0.0158,0.0172,0.0039,0.004,0.0041,0.0159,0,-0.0525,-0.0555,-0.0531,-0.0548,-0.0559,-0.0506,-0.0492,-0.0449,-0.0398,-0.0351,-0.0274,-0.0229,-0.0188,-0.0162,-0.0106,-0.0015,0.0034,-0.0023,0.0135,0.014,0.016,0.0183,0.0158,0.0262,0.0169,0.017,0.0171,0,-0.0563,-0.058,-0.0613,-0.0608,-0.0605,-0.0603,-0.0563,-0.0539,-0.0458,-0.0417,-0.0348,-0.0284,-0.0199,-0.0171,-0.0015,-0.0054,0.0028,0.0096,0.0103,0.0154,0.0185,0.0253,0.0283,0.0188,0.0187,0.0185,0.0184,0,-0.0619,-0.0632,-0.0664,-0.0664,-0.0649,-0.0647,-0.0629,-0.0565,-0.0539,-0.0457,-0.0425,-0.0313,-0.025,-0.0135,0.001,-0.0002,0.0181,0.0189,0.0291,0.0294,0.0317,0.032,0.0291,0.0291,0.0291,0.029,0.029,0,-0.067,-0.0692,-0.0696,-0.0716,-0.0744,-0.0707,-0.0707,-0.0667,-0.0602,-0.0565,-0.0466,-0.0403,-0.024,-0.0111,0.0008,0.0188,0.019,0.0293,0.0331,0.0296,0.0296,0.0265,0.026,0.0295,0.0294,0.0293,0.0292,0,-0.0726,-0.0729,-0.0766,-0.0772,-0.0775,-0.0794,-0.0771,-0.076,-0.0693,-0.0638,-0.0617,-0.0459,-0.0285,-0.0117,0.0089,0.0192,0.0351,0.0409,0.0354,0.0383,0.0423,0.0414,0.0535,0.0537,0.0538,0.054,0.0541,0,-0.0758,-0.0787,-0.082,-0.0846,-0.0853,-0.087,-0.0876,-0.0819,-0.0794,-0.0662,-0.0634,-0.0461,-0.0311,0.0002,0.0203,0.0425,0.0415,0.0517,0.049,0.0426,0.045,0.0438,0.0427,0.05,0.0501,0.0501,0.0502,0,-0.0816,-0.0827,-0.0858,-0.0922,-0.0946,-0.0962,-0.0959,-0.095,-0.0859,-0.0778,-0.0629,-0.0499,-0.0203,0.0053,0.0322,0.0444,0.0478,0.0537,0.0509,0.0434,0.0401,0.0422,0.0411,0.0508,0.0507,0.0507,0.0506,0.0506,-0.0848,-0.0889,-0.0933,-0.0986,-0.1018,-0.1035,-0.103,-0.0988,-0.0918,-0.077,-0.0634,-0.0397,-0.018,0.0226,0.0402,0.056,0.0561,0.0598,0.0593,0.0588,0.0555,0.0525,0.0649,0.065,0.065,0.065,0.065,0,-0.0884,-0.0929,-0.099,-0.1044,-0.108,-0.108,-0.1064,-0.1019,-0.0916,-0.0765,-0.0583,-0.0276,0.0005,0.0223,0.0481,0.0629,0.0603,0.0644,0.0579,0.0573,0.0568,0.0531,0.0621,0.0622,0.0622,0.0622,0,0,-0.0903,-0.0969,-0.1003,-0.1076,-0.1108,-0.111,-0.1088,-0.0995,-0.0879,-0.0689,-0.0499,-0.0269,0.0013,0.0189,0.037,0.0497,0.0485,0.0503,0.0513,0.0406,0.0398,0.0534,0.047,0,0,0,0,0]}],[{"header":{"parameterUnit":"m.s-1","parameterCategory":2,"la1":30.2991,"la2":30.254,"lo1":-89.0895,"lo2":-89.0444,"dy":0.0017,"dx":0.0017,"nx":28,"ny":28,"refTime":"2024-10-21T03:00:00:Z","depth":"4","parameterNumber":2,"parameterNumberName":"U-component_of_CURRENTS"},"data":[0,0,0,0,0,0,0,0,0,0,0,0,0,0,0,0,0,0,0,0,0,0,0,0,0,0,0,0,0,0,0,0,0,0,0,0,0,0,0,0,0,0,0,0,0,0,0,0,0,0,0,0,0,0,0,0,0,0,-0.1671,-0.1672,0,-0.1726,-0.1726,-0.1727,-0.1768,-0.1768,-0.1769,-0.1769,-0.1826,-0.1827,-0.1828,0,0,0,0,0,0,0,0,0,0,0,0,0,-0.1608,-0.1608,-0.1671,-0.1672,-0.1673,-0.1726,-0.1726,-0.1727,-0.1768,-0.1768,-0.1769,-0.1769,-0.1826,-0.1827,-0.1828,0,0,0,0,0,0,0,0,0,0,0,0,0,-0.1645,-0.1609,-0.1671,-0.17,-0.1704,-0.1726,-0.1726,-0.1727,-0.1768,-0.1768,-0.1769,-0.177,-0.1825,-0.1827,-0.1828,-0.1824,0,0,-0.1833,-0.1834,0,0,0,0,0,0,0,0,-0.1643,-0.1647,-0.1695,-0.1698,-0.1702,-0.1742,-0.1725,-0.176,-0.1767,-0.1742,-0.1769,-0.177,-0.1798,-0.1802,-0.1809,-0.1827,-0.1829,-0.1833,-0.1834,-0.1835,-0.1836,0,0,0,0,0,0,0,-0.164,-0.1645,-0.1692,-0.1696,-0.17,-0.1713,-0.1719,-0.1732,-0.1765,-0.1744,-0.1748,-0.1755,-0.18,-0.1807,-0.1811,-0.183,-0.1833,-0.1835,-0.1836,-0.1836,-0.1918,-0.192,0,0,0,0,0,0,-0.1635,-0.1642,-0.169,-0.1693,-0.1675,-0.1713,-0.172,-0.1727,-0.1764,-0.1771,-0.1755,-0.1757,-0.1804,-0.1809,-0.1813,-0.1879,-0.1835,-0.1837,-0.1837,-0.1917,-0.1919,-0.192,0,0,0,0,0,0,-0.1633,-0.1638,-0.1688,-0.167,-0.1677,-0.1714,-0.1722,-0.1728,-0.1764,-0.1773,-0.1779,-0.1788,-0.1805,-0.1811,-0.1852,-0.1879,-0.1837,-0.1839,-0.1916,-0.1918,-0.1919,-0.1966,0,0,0,0,0,0,-0.1631,-0.1637,-0.1654,-0.167,-0.1678,-0.172,-0.1721,-0.1729,-0.1767,-0.1771,-0.1803,-0.1807,-0.1806,-0.1849,-0.1853,-0.188,-0.184,-0.1914,-0.1917,-0.1919,-0.1963,-0.1969,-0.1975,0,0,0,0,0,-0.1629,-0.1644,-0.1655,-0.1661,-0.1696,-0.1721,-0.1727,-0.1754,-0.1768,-0.1789,-0.1813,-0.1808,-0.1867,-0.1852,-0.1856,-0.1884,-0.1913,-0.1916,-0.1919,-0.196,-0.1968,-0.1975,0,0,0,0,0,0,-0.1625,-0.165,-0.1662,-0.1685,-0.1711,-0.1729,-0.1754,-0.177,-0.1805,-0.1818,-0.1825,-0.1831,-0.1875,-0.1874,-0.1858,-0.1914,-0.1889,-0.1892,-0.1919,-0.1926,-0.1932,-0.1922,-0.1841,0,0,0,0,0,-0.1631,-0.1651,-0.1675,-0.1696,-0.1712,-0.1739,-0.1758,-0.1778,-0.1803,-0.1821,-0.1844,-0.1866,-0.1884,-0.1903,-0.1917,-0.1951,-0.1928,-0.1971,-0.1977,-0.1982,-0.1977,-0.1968,-0.1972,-0.1929,-0.1929,-0.1929,0,0,-0.1636,-0.1652,-0.1665,-0.1698,-0.1721,-0.1748,-0.1753,-0.1791,-0.1821,-0.1821,-0.1877,-0.189,-0.1898,-0.1935,-0.1954,-0.1942,-0.1983,-0.1985,-0.1989,-0.1982,-0.1971,-0.1975,-0.1979,-0.1931,-0.1931,-0.193,0,0,-0.1646,-0.1672,-0.1691,-0.1717,-0.1758,-0.1774,-0.1792,-0.183,-0.1858,-0.1905,-0.1911,-0.1941,-0.1979,-0.1985,-0.1991,-0.2038,-0.2013,-0.2051,-0.2076,-0.2068,-0.2071,-0.2073,-0.2048,-0.2047,-0.2056,-0.2056,-0.2056,0,-0.1654,-0.1678,-0.1702,-0.1729,-0.1755,-0.1789,-0.1819,-0.1849,-0.1899,-0.192,-0.1932,-0.1983,-0.1998,-0.2023,-0.2045,-0.2051,-0.2036,-0.2049,-0.2074,-0.2076,-0.2077,-0.2051,-0.205,-0.2058,-0.2058,-0.2058,-0.2058,0,-0.1669,-0.1704,-0.172,-0.1764,-0.1795,-0.1828,-0.1869,-0.191,-0.1948,-0.1972,-0.2021,-0.2038,-0.2063,-0.2078,-0.208,-0.2104,-0.2086,-0.208,-0.2053,-0.2084,-0.2054,-0.2053,-0.2062,-0.2061,-0.206,-0.206,0,0,-0.1642,-0.1717,-0.1725,-0.1755,-0.1818,-0.1841,-0.1897,-0.1945,-0.1979,-0.2029,-0.2063,-0.2102,-0.2113,-0.212,-0.2126,-0.2126,-0.2131,-0.2116,-0.2114,-0.2084,-0.2103,-0.1962,-0.1945,-0.2133,-0.2133,-0.2133,-0.2076,0,-0.1649,-0.1702,-0.174,-0.1797,-0.1827,-0.1881,-0.1925,-0.1977,-0.202,-0.2065,-0.2088,-0.2125,-0.2128,-0.2146,-0.2149,-0.2139,-0.2129,-0.2146,-0.2082,-0.208,-0.1944,-0.1939,-0.2134,-0.2074,-0.2074,-0.2074,-0.2073,0,-0.1641,-0.1681,-0.1738,-0.1814,-0.1833,-0.1876,-0.1948,-0.1994,-0.2058,-0.2092,-0.2128,-0.2148,-0.217,-0.2165,-0.2149,-0.2162,-0.2136,-0.2119,-0.2116,-0.1963,-0.1934,-0.2037,-0.2069,-0.207,-0.207,-0.207,-0.207,0,-0.1591,-0.1675,-0.1722,-0.175,-0.1841,-0.1882,-0.1933,-0.2004,-0.2038,-0.211,-0.2131,-0.2163,-0.2173,-0.216,-0.2133,-0.2148,-0.2092,-0.2105,-0.1946,-0.1936,-0.2061,-0.2059,-0.2076,-0.2076,-0.2076,-0.2076,-0.2077,0,-0.1562,-0.1602,-0.1709,-0.1734,-0.1787,-0.1865,-0.1921,-0.1976,-0.2047,-0.2064,-0.2139,-0.2133,-0.2173,-0.2149,-0.2129,-0.2013,-0.2084,-0.1933,-0.1905,-0.2083,-0.2084,-0.2059,-0.2058,-0.2074,-0.2075,-0.2075,-0.2075,0,-0.1489,-0.1565,-0.1622,-0.173,-0.1765,-0.1803,-0.1903,-0.193,-0.2015,-0.2038,-0.2059,-0.211,-0.207,-0.2074,-0.204,-0.1976,-0.1906,-0.1847,-0.202,-0.2006,-0.1759,-0.1762,-0.1664,-0.1659,-0.1654,-0.165,-0.1647,0,-0.1451,-0.1476,-0.1597,-0.1625,-0.1678,-0.1751,-0.1786,-0.1896,-0.1915,-0.199,-0.1973,-0.1981,-0.199,-0.1813,-0.1853,-0.178,-0.1762,-0.172,-0.1753,-0.1731,-0.1715,-0.1725,-0.1733,-0.1639,-0.1638,-0.1637,-0.1636,0,-0.1367,-0.1427,-0.147,-0.1531,-0.1583,-0.1628,-0.1691,-0.1689,-0.1789,-0.1885,-0.1818,-0.1786,-0.173,-0.1697,-0.1642,-0.1602,-0.175,-0.167,-0.1681,-0.1712,-0.1699,-0.169,-0.1704,-0.1619,-0.1621,-0.1623,-0.1624,0,-0.1298,-0.1306,-0.137,-0.1404,-0.1469,-0.1474,-0.1529,-0.1534,-0.1568,-0.1658,-0.1625,-0.1638,-0.1693,-0.1601,-0.1557,-0.1497,-0.1484,-0.1447,-0.1469,-0.1487,-0.1458,-0.1418,-0.1208,0,0,0,0,0,-0.1217,-0.1207,-0.1232,-0.1261,-0.132,-0.1349,-0.1442,-0.15,-0.1597,-0.1496,-0.1556,-0.1496,-0.1424,-0.1444,-0.1343,-0.1488,-0.15,-0.1367,-0.1472,-0.1528,-0.1547,-0.153,0,0,0,0,0,0,-0.1162,-0.1181,-0.1184,-0.1131,-0.1115,-0.1158,-0.1207,-0.1278,-0.1237,-0.1341,-0.1304,-0.1388,-0.1339,-0.1431,-0.1298,-0.1304,-0.1337,-0.1393,-0.1389,-0.1517,-0.1534,-0.155,-0.1538,0,0,0,0,0]},{"header":{"parameterUnit":"m.s-1","parameterCategory":2,"la1":30.2991,"la2":30.254,"lo1":-89.0895,"lo2":-89.0444,"dy":0.0017,"dx":0.0017,"nx":28,"ny":28,"refTime":"2024-10-21T03:00:00:Z","depth":"4","parameterNumber":3,"parameterNumberName":"V-component_of_CURRENTS"},"data":[0,0,0,0,0,0,0,0,0,0,0,0,0,0,0,0,0,0,0,0,0,0,0,0,0,0,0,0,0,0,0,0,0,0,0,0,0,0,0,0,0,0,0,0,0,0,0,0,0,0,0,0,0,0,0,0,0,0,-0.0186,-0.0186,0,-0.0133,-0.0132,-0.0132,-0.0096,-0.0096,-0.0096,-0.0095,-0.0017,-0.0016,-0.0014,0,0,0,0,0,0,0,0,0,0,0,0,0,-0.0228,-0.0228,-0.0186,-0.0186,-0.0185,-0.0133,-0.0132,-0.0132,-0.0096,-0.0096,-0.0096,-0.0095,-0.0018,-0.0016,-0.0014,0,0,0,0,0,0,0,0,0,0,0,0,0,-0.0196,-0.0228,-0.0186,-0.0161,-0.0159,-0.0133,-0.0132,-0.0131,-0.0096,-0.0096,-0.0096,-0.0095,-0.0019,-0.0016,-0.0013,-0.0002,0,0,-0.0005,-0.0003,0,0,0,0,0,0,0,0,-0.0198,-0.0194,-0.0166,-0.0163,-0.016,-0.0121,-0.0118,-0.0087,-0.0096,-0.0119,-0.0095,-0.0095,-0.005,-0.0045,-0.0035,0.0001,0.0005,-0.0004,-0.0003,-0.0002,-0.0001,0,0,0,0,0,0,0,-0.02,-0.0196,-0.0165,-0.0165,-0.0162,-0.0143,-0.0138,-0.0112,-0.0087,-0.0117,-0.0115,-0.011,-0.0048,-0.0038,-0.0033,0.0006,-0.0005,-0.0002,-0.0,0.0001,0.0066,0.0066,0,0,0,0,0,0,-0.0209,-0.0198,-0.0166,-0.0163,-0.0179,-0.0143,-0.0137,-0.0134,-0.0087,-0.008,-0.011,-0.0108,-0.0043,-0.0037,-0.003,-0.001,-0.0002,0.0001,0.0003,0.0066,0.0066,0.0066,0,0,0,0,0,0,-0.021,-0.0207,-0.0169,-0.018,-0.0174,-0.0142,-0.0138,-0.0133,-0.0124,-0.0082,-0.0074,-0.0107,-0.0043,-0.0034,-0.0009,-0.0007,0.0002,0.0005,0.0066,0.0066,0.0066,0.0029,0,0,0,0,0,0,-0.0212,-0.0208,-0.0211,-0.018,-0.0173,-0.0159,-0.0139,-0.0132,-0.0121,-0.0119,-0.0077,-0.0069,-0.0042,-0.0014,-0.0006,-0.0002,0.0007,0.0066,0.0066,0.0066,0.003,0.0028,0.0025,0,0,0,0,0,-0.0213,-0.0218,-0.0212,-0.0208,-0.0178,-0.0159,-0.0154,-0.013,-0.0122,-0.0121,-0.0092,-0.0071,-0.0008,-0.0011,-0.0003,0.0002,0.0066,0.0066,0.0066,0.0031,0.0028,0.0026,0,0,0,0,0,0,-0.0237,-0.0214,-0.0206,-0.0204,-0.0186,-0.0153,-0.0151,-0.0135,-0.0112,-0.011,-0.0071,-0.0061,-0.0038,-0.0014,-0.0019,0.0021,0.0033,0.0035,0.0003,0.0001,-0.0001,-0.0012,0.001,0,0,0,0,0,-0.0245,-0.0245,-0.0218,-0.0218,-0.0211,-0.0184,-0.0174,-0.0159,-0.0133,-0.0123,-0.0093,-0.0061,-0.0031,-0.0013,0.0013,0.0035,0.0065,0.0044,0.0042,0.004,0.0037,0.0086,0.0088,0.0067,0.0067,0.0067,0,0,-0.0254,-0.0243,-0.0243,-0.0224,-0.0209,-0.0203,-0.0177,-0.0167,-0.0159,-0.0118,-0.01,-0.007,-0.0028,-0.0004,0.0009,0.0017,0.0061,0.004,0.0038,0.0036,0.0086,0.0089,0.009,0.0067,0.0067,0.0067,0,0,-0.0275,-0.0264,-0.0271,-0.0259,-0.0242,-0.0222,-0.0222,-0.0193,-0.0177,-0.0158,-0.0124,-0.0092,-0.0053,-0.0017,0.0006,0.0008,0.0044,0.0014,-0.0001,0.0047,0.0049,0.0051,0.0087,0.0093,0.0017,0.0017,0.0017,0,-0.0288,-0.0292,-0.027,-0.0272,-0.0268,-0.0234,-0.0239,-0.0216,-0.0182,-0.0169,-0.0159,-0.009,-0.0056,-0.0014,-0.0013,0.0004,0.003,0.0005,0.0044,0.0047,0.005,0.0086,0.0093,0.0015,0.0015,0.0015,0.0015,0,-0.0309,-0.0314,-0.0318,-0.0311,-0.0301,-0.0301,-0.027,-0.0255,-0.0234,-0.0207,-0.0168,-0.0118,-0.0075,-0.0058,-0.0035,0.0004,0.0015,0.0032,0.0049,0.005,0.0088,0.0096,0.0012,0.0013,0.0014,0.0014,0,0,-0.0334,-0.0334,-0.0337,-0.0345,-0.0324,-0.032,-0.0305,-0.0279,-0.0268,-0.0226,-0.0204,-0.0146,-0.0115,-0.0088,-0.0048,-0.0006,0.0039,0.0016,0.0019,0.0048,0.0136,0.0118,0.0126,0.0061,0.0062,0.0063,0.0152,0,-0.0359,-0.0384,-0.0369,-0.0387,-0.0396,-0.0363,-0.0355,-0.0326,-0.0291,-0.0259,-0.0196,-0.0164,-0.0126,-0.0108,-0.0057,0.0014,0.0058,0.0012,0.0134,0.0137,0.0119,0.0134,0.0067,0.0158,0.016,0.0162,0.0163,0,-0.0383,-0.0399,-0.0428,-0.0433,-0.0434,-0.0437,-0.0417,-0.0401,-0.0343,-0.0315,-0.026,-0.0211,-0.0139,-0.0114,0.0017,-0.0015,0.0053,0.0109,0.0115,0.0116,0.0134,0.016,0.0177,0.0176,0.0175,0.0174,0.0173,0,-0.0419,-0.0436,-0.0466,-0.0469,-0.0467,-0.0473,-0.0466,-0.0424,-0.041,-0.0351,-0.0331,-0.0237,-0.0189,-0.0089,0.003,0.0024,0.0171,0.0182,0.0233,0.0232,0.0237,0.0234,0.027,0.027,0.027,0.027,0.027,0,-0.0449,-0.0472,-0.0491,-0.0509,-0.0542,-0.0521,-0.0534,-0.0509,-0.0468,-0.0446,-0.0366,-0.032,-0.0181,-0.0078,0.0025,0.0154,0.0175,0.0231,0.0256,0.0219,0.0212,0.0243,0.0238,0.0273,0.0272,0.0272,0.0271,0,-0.048,-0.0492,-0.053,-0.0552,-0.0563,-0.0587,-0.0592,-0.059,-0.0547,-0.0513,-0.0498,-0.0375,-0.024,-0.01,0.0071,0.0143,0.0267,0.0307,0.0252,0.0272,0.0296,0.0289,0.0369,0.0369,0.0369,0.0369,0.0369,0,-0.0496,-0.0522,-0.0573,-0.0605,-0.0621,-0.0651,-0.0668,-0.0638,-0.0624,-0.0538,-0.0517,-0.039,-0.0296,-0.0056,0.0079,0.027,0.0293,0.0345,0.0322,0.0291,0.0308,0.03,0.0293,0.037,0.037,0.037,0.037,0,-0.0525,-0.0549,-0.0582,-0.0655,-0.0692,-0.0721,-0.0735,-0.073,-0.0675,-0.0641,-0.0514,-0.0385,-0.0231,-0.0051,0.0093,0.023,0.0303,0.0347,0.0348,0.0327,0.0293,0.0308,0.03,0.037,0.037,0.037,0.037,0,-0.0545,-0.058,-0.0632,-0.0688,-0.0743,-0.0768,-0.0772,-0.0733,-0.0705,-0.0598,-0.0554,-0.0377,-0.0268,-0.0071,0.0067,0.0192,0.0218,0.0244,0.025,0.0251,0.0184,0.0122,0.0171,0,0,0,0,0,-0.0558,-0.0599,-0.0659,-0.0718,-0.0773,-0.0794,-0.0803,-0.0788,-0.0737,-0.065,-0.0595,-0.0443,-0.0218,-0.0112,0.0011,0.0046,0.0216,0.019,0.0243,0.0373,0.0373,0.0311,0,0,0,0,0,0,-0.0567,-0.0627,-0.0659,-0.0728,-0.0767,-0.0812,-0.0815,-0.0781,-0.0715,-0.0646,-0.0516,-0.0433,-0.021,-0.0285,0.001,0.0048,0.0092,0.0303,0.0305,0.0374,0.0373,0.0372,0.0309,0,0,0,0,0]}]]